This is the latest recevied weather packets stored in our database for station/object KK7MLS-13. If no packets are shown the sender has not sent any weather packets the latest 10 day(s).
| Time | Temp. | Humidity | Pressure | Rain* | Wind** | Luminosity | Snow |
|---|---|---|---|---|---|---|---|
| 1777694857 | 16.67° C | 62% | 1016 hPa | 0 mm | - | 0 W/m² | - |
| 1777694554 | 16.67° C | 63% | 1015.9 hPa | 0 mm | - | 0 W/m² | - |
| 1777694250 | 16.67° C | 63% | 1016 hPa | 0 mm | - | 0 W/m² | - |
| 1777693947 | 17.22° C | 63% | 1015.7 hPa | 0 mm | - | 0 W/m² | - |
| 1777693644 | 17.22° C | 62% | 1015.5 hPa | 0 mm | - | 0 W/m² | - |
| 1777693342 | 17.78° C | 61% | 1015.5 hPa | 0 mm | - | 0 W/m² | - |
| 1777693040 | 17.78° C | 60% | 1015.3 hPa | 0 mm | - | 0 W/m² | - |
| 1777692738 | 18.33° C | 61% | 1015.4 hPa | 0 mm | - | 0 W/m² | - |
| 1777692434 | 18.33° C | 60% | 1015.4 hPa | 0 mm | - | 0 W/m² | - |
| 1777692130 | 18.89° C | 60% | 1015.3 hPa | 0 mm | - | 1 W/m² | - |
| 1777691828 | 18.89° C | 59% | 1015.2 hPa | 0 mm | - | 2 W/m² | - |
| 1777691526 | 19.44° C | 60% | 1015 hPa | 0 mm | - | 2 W/m² | - |
| 1777691224 | 19.44° C | 61% | 1015 hPa | 0 mm | - | 4 W/m² | - |
| 1777690922 | 20° C | 61% | 1015 hPa | 0 mm | - | 4 W/m² | - |
| 1777690632 | 20° C | 60% | 1014.8 hPa | 0 mm | - | 6 W/m² | - |
| 1777690317 | 20° C | 59% | 1014.7 hPa | 0 mm | - | 8 W/m² | - |
| 1777690014 | 20° C | 59% | 1014.6 hPa | 0 mm | - | 9 W/m² | - |
| 1777689712 | 20.56° C | 56% | 1014.6 hPa | 0 mm | - | 11 W/m² | - |
| 1777689410 | 20.56° C | 57% | 1014.6 hPa | 0 mm | - | 13 W/m² | - |
| 1777689107 | 20.56° C | 56% | 1014.6 hPa | 0 mm | - | 15 W/m² | - |
| 1777688804 | 20.56° C | 56% | 1014.6 hPa | 0 mm | - | 15 W/m² | - |
| 1777688501 | 20.56° C | 55% | 1014.7 hPa | 0 mm | - | 17 W/m² | - |
| 1777688198 | 21.11° C | 53% | 1014.3 hPa | 0 mm | - | 16 W/m² | - |
| 1777687895 | 21.11° C | 54% | 1014.5 hPa | 0 mm | - | 22 W/m² | - |
| 1777687593 | 21.67° C | 54% | 1014.3 hPa | 0 mm | - | 29 W/m² | - |
* Rain latest hour (hover to see other rain measurements)
** Current wind speed in m/s (hover to see current wind gust speed)